C/2020 T2 ( Palomar )

Japanese version
Home page
Updated on November 15, 2021

---------------------------------------------------------------------

* Profile

Discovery Date October 7, 2020
Magnitude 19.3 mag
Discoverer Dmitry A. Duev (Palomar, Zwicky Transient Facility's Twilight Survey)

* Pictures

* Orbital Elements

Epoch 2021 July 5.0 TT = JDT 2459400.5
T 2021 July 11.14808 TT                                 Rudenko
q   2.0546818            (2000.0)            P               Q
z  +0.0032064      Peri.  150.38349     -0.53886966     +0.70303116
 +/-0.0000005      Node    83.04816     -0.83514240     -0.37374872
e   0.9934118      Incl.   27.87299     -0.11025728     -0.60502817
From 860 observations 2019 Dec. 11-2021 May 2, mean residual 0".5.

* Finding Charts

* Magnitudes Graph

        m1 = 2.7 + 5 log d + 19.0 log r(t - 20)

---------------------------------------------------------------------

The orbital elements are published on M.P.E.C. 2021-J28.
The charts are made with StellaNavigator Ver.10 (AstroArts).
The magnitudes graphs are made with Comet for Windows.

---------------------------------------------------------------------

Copyright(C) Seiichi Yoshida (comet@aerith.net). All rights reserved.